Weather Roundup
Issued by NWS Chicago, IL

Home | Current Version | Previous Version | Graphics & Text | Print | Product List | Glossary On
Versions: 1 2 3 4 5 6 7 8 9 10 11 12 13 14 15 16 17 18 19 20 21 22 23 24 25 26 27 28 29 30 31 32 33 34 35 36 37 38 39 40 41 42 43 44 45 46 47 48 49 50
000
NZUS59 KLOT 282121
HRRLOT

CHICAGO AREA WEATHER ROUNDUP
NATIONAL WEATHER SERVICE CHICAGO/ROMEOVILLE IL
400 PM CDT TUE JUL 28 2015

NOTE: "FAIR" INDICATES FEW OR NO CLOUDS BELOW 12,000 FEET WITH NO
SIGNIFICANT WEATHER AND/OR OBSTRUCTIONS TO VISIBILITY.

* THESE STATIONS ARE NOT UNDER NWS QUALITY CONTROL. THEY ALSO MAY NOT
  REPORT WEATHER SUCH AS PRECIPITATION OR FOG.

ILZ005-006-012>014-019>023-282200-
NORTHEAST ILLINOIS

CITY           SKY/WX    TMP DP  RH WIND       PRES   REMARKS
OHARE          PTSUNNY   90  68  48 SE7       29.87F HX  94
MIDWAY         PTSUNNY   93  68  43 E12       29.89F HX  97
AURORA         PTSUNNY   88  72  58 S16       29.88F HX  94
LANSING*       MOSUNNY   90  65  44 S7        29.91F HX  91
JOLIET*        MOSUNNY   88  73  60 SE6       29.88F HX  95
WAUKEGAN       MOSUNNY   81  68  64 SE13      29.87F HX  84
DUPAGE AIRPORT MOSUNNY   88  70  55 S8        29.87F HX  93
WHEELING       MOSUNNY   86  69  56 E13       29.89F HX  90
KANKAKEE*      MOSUNNY   88  71  57 CALM      29.92F HX  94
MORRIS*        PTSUNNY   86  74  68 S8        29.88F HX  94
LEWIS AIRPORT* MOSUNNY   88  67  49 SE8       29.88F HX  91
NORTHERLY IS     N/A     81  70  69 E14         N/A  HX  84
$$

WIZ051-052-058>065-066-070>072-282200-
SOUTHEAST WISCONSIN

CITY           SKY/WX    TMP DP  RH WIND       PRES   REMARKS
MILWAUKEE      PTSUNNY   79  66  64 SE17G23   29.88F HX  81
KENOSHA*       PTSUNNY   83  69  62 SE18G24   29.88F HX  86
RACINE*        PTSUNNY   80  66  62 SE13      29.91F HX  82
BURLINGTON     PTSUNNY   83  68  60 SE9       29.87F HX  86
WAUKESHA       PTSUNNY   82  66  57 SE13G18   29.90F HX  85
WEST BEND      CLOUDY    81  63  54 SE12G17   29.90S HX  82
$$

INZ001>003-010>013-019-020-282200-
NORTHWEST INDIANA

CITY           SKY/WX    TMP DP  RH WIND       PRES   REMARKS
GARY*          PTSUNNY   90  72  55 SE7       29.94F HX  96
MICHIGAN CITY* NOT AVBL
RENSSELAER*    NOT AVBL
VALPARAISO     MOSUNNY   88  71  57 VRB6      29.96F HX  94
$$

LMZ740>746-282200-
SOUTHERN LAKE MICHIGAN

STATION/POSITION TIME  SKY/WX   TEMP WIND        PRES    VSBY
                                AIR  DIR/SP/G
                 (UTC)          (F)  (DEG/KT/KT) (MB)    (MI)
HARRISON CRIB    2100            78   90/ 22/ 23   N/A
BURNHAM HARBOR   2100            81   90/ 14       N/A
CALUMET HARBOR   2000            79   40/  9/ 11   N/A
BURNS HARBOR     2000            87  200/  4/ 10 1014.9F
MICHIGAN CITY    2100            81   20/  9/  9   N/A
$$

ABBREVIATIONS USED IN REMARKS
   TC - TEMPERATURE IN CELSIUS
  WCI - WIND CHILL INDEX
   HX - HEAT INDEX
  VSB - VISIBILITY
$$


USA.gov is the U.S. government's official web portal to all federal, state and local government web resources and services.